Location: Stanley
(44.2150°N, 114.9367°W)
Time: 06:22:04
(UTC+00:00)

X-37B - Visible Passes

Search period start: 02 December 2022 00:00
Search period end: 12 December 2022 00:00
Orbit: 277 x 277 km, 45.0° (Epoch: 01 November)

Date Brightness Start Highest point End Pass type
(mag) Time Alt. Az. Time Alt. Az. Time Alt. Az.
08 Dec 2.5 01:00:29 10° S 01:01:44 13° SSE 01:02:51 10° ESE visible
09 Dec 1.8 01:00:18 10° SSW 01:02:16 21° SSE 01:03:34 14° ESE visible
10 Dec 1.0 01:00:34 10° SW 01:02:51 34° SSE 01:04:15 18° E visible
11 Dec 0.3 01:01:03 10° WSW 01:03:28 55° SSE 01:04:54 20° E visible
